Wind_Speed
11 10 10 11 11 11 11 10 9 10 10 10 10 10 10 11 12 12 13 15 16 15 13 13 14 15 18 21 23 21 18 17 17 16 15 16 16 15 15 14 13 13 12 11 11 11 12 12 12 11 11 11 11 11 12 12 12 13 13 12 11 10 9 8 8 7 7 7 7 6 6 7 7 7 6 6 5 5 5 6 4 3 2 3 2
11 11 10 10 11 11 11 10 10 10 10 10 10 11 12 13 13 13 14 15 16 16 15 15 16 16 18 21 23 23 20 18 18 17 16 16 17 16 15 14 14 14 13 12 11 12 12 12 12 12 11 11 11 12 11 11 11 11 12 11 10 9 8 8 7 7 7 7 7 6 6 6 6 6 5 5 5 6 6 5 4 2 2 2 2
12 11 11 11 11 11 11 11 10 11 11 10 11 13 14 15 15 16 17 17 17 17 18 18 18 18 19 21 22 24 22 19 19 19 17 16 17 17 16 15 14 14 14 13 12 12 12 12 12 12 12 11 11 11 11 10 10 11 11 11 10 9 8 8 7 7 7 7 7 6 6 6 6 6 5 5 5 6 5 5 4 3 2 1 1
12 12 12 12 12 12 11 11 11 11 11 10 11 13 14 15 15 16 17 19 19 19 20 22 21 20 20 21 22 23 23 21 19 20 19 17 17 18 18 17 15 15 15 14 13 12 12 13 13 13 12 12 12 11 11 10 10 10 10 10 9 8 8 8 8 7 6 6 7 6 6 6 6 6 6 6 6 6 5 5 4 3 2 2 1
11 11 11 11 12 11 11 11 11 12 12 11 11 13 14 15 15 16 17 18 20 20 21 23 24 23 21 21 21 22 22 22 21 21 20 19 17 17 19 19 17 15 15 16 15 13 12 13 13 13 13 13 12 11 11 10 9 9 9 8 8 8 8 8 8 8 6 6 7 6 6 6 6 7 7 6 6 5 5 5 4 3 3 2 2
11 11 11 11 11 11 11 12 12 13 13 12 13 14 15 16 16 17 17 18 20 21 21 23 24 24 22 21 21 21 22 22 21 21 21 20 19 18 19 19 18 17 16 17 16 14 13 13 13 14 14 13 13 12 11 10 9 9 9 8 7 7 8 8 8 8 7 6 7 7 7 7 7 7 7 6 6 6 6 5 4 4 3 2 2
12 11 11 11 11 11 11 12 12 13 14 14 14 15 16 17 18 17 18 19 20 21 22 22 22 24 23 20 20 21 22 23 22 21 21 21 19 19 19 19 19 18 17 18 17 16 14 14 14 14 14 14 13 13 12 10 9 9 9 8 7 7 7 8 8 7 7 7 7 7 7 7 7 7 7 6 6 6 6 5 4 4 3 2 2
12 12 11 12 12 12 12 12 13 13 14 14 15 17 17 18 19 19 19 19 20 21 22 21 21 22 23 20 20 21 22 23 22 21 21 21 19 18 19 20 20 19 18 18 18 17 16 15 14 14 15 14 14 14 13 11 10 9 8 8 7 7 7 7 7 7 7 7 7 7 7 7 7 7 6 6 6 6 6 6 5 5 4 3 3
13 12 12 13 13 14 14 14 14 15 15 15 15 16 18 18 18 19 20 20 20 20 21 21 21 20 21 22 21 21 21 22 23 23 22 22 20 19 20 21 21 20 19 18 18 18 17 16 15 15 15 15 14 14 14 12 11 9 9 8 8 8 8 7 7 7 7 7 7 7 7 7 7 7 7 6 7 7 7 6 6 5 4 3 4
14 14 14 14 15 16 16 16 16 16 16 17 16 16 16 17 17 18 19 20 21 22 22 22 22 21 21 24 24 23 22 23 24 26 25 24 22 20 21 23 22 21 21 19 18 18 18 17 16 15 15 15 15 15 15 14 12 10 9 9 8 8 8 8 8 8 8 8 8 7 7 7 8 7 7 7 7 7 7 7 6 5 4 4 4
16 16 16 16 17 17 18 18 17 17 17 18 18 17 17 17 17 17 18 19 21 22 22 22 22 22 22 24 26 25 24 25 25 26 27 26 25 23 23 25 25 23 22 20 19 19 19 18 17 16 16 16 16 15 16 15 13 12 10 9 9 9 9 9 9 9 9 9 8 8 7 8 8 8 8 7 7 7 7 7 6 6 5 5 5
18 18 17 18 18 19 19 19 19 18 19 19 19 18 18 18 17 17 18 19 22 23 23 23 22 23 24 25 26 25 26 27 26 26 28 28 28 27 26 27 28 26 24 22 20 20 20 19 18 17 17 16 16 16 16 16 15 13 12 10 9 10 11 11 11 11 10 9 9 8 8 8 8 8 7 7 7 8 8 7 7 6 6 6 6
19 19 19 19 20 20 21 21 20 20 20 20 20 20 19 19 19 19 21 21 23 24 24 25 25 24 25 26 26 26 27 29 29 27 28 29 31 31 30 30 30 28 26 24 22 22 21 21 20 18 18 17 17 17 17 17 16 15 14 12 11 10 12 12 12 12 11 10 10 9 8 8 7 7 7 8 8 8 8 7 7 7 6 7 7
19 19 19 19 20 21 22 22 22 21 21 21 21 21 21 21 21 21 23 23 24 25 24 25 26 27 27 27 26 26 26 29 30 30 30 31 31 32 33 32 31 30 27 25 24 24 23 22 21 20 19 19 18 17 17 18 18 17 16 14 12 11 12 13 12 12 12 12 11 10 9 8 8 8 8 8 8 8 8 8 8 7 7 8 8
19 19 20 20 21 22 23 23 23 22 22 23 22 22 22 23 23 23 23 23 23 25 25 25 26 27 27 27 26 27 27 27 29 31 34 34 32 31 33 32 32 32 29 27 26 25 24 23 23 22 21 20 19 18 17 18 19 18 17 16 14 12 13 13 13 13 13 13 12 11 10 9 9 8 8 8 8 9 9 9 8 8 8 8 9
19 19 20 20 21 22 23 24 24 23 22 23 23 23 23 23 24 24 23 23 23 24 25 25 26 28 28 28 28 28 28 27 28 30 34 36 33 32 32 32 33 33 31 30 28 26 25 25 25 24 23 21 20 19 18 18 19 20 19 17 15 14 13 13 13 13 13 13 13 13 12 11 10 10 9 9 9 9 9 9 9 9 9 9 9
19 19 20 21 21 22 23 23 24 23 23 23 23 23 23 23 23 24 24 23 22 23 25 26 26 28 29 29 30 30 30 29 28 29 32 34 34 33 33 32 33 33 32 31 30 28 27 26 26 25 24 23 22 20 19 19 20 20 19 18 16 15 15 14 14 14 14 14 14 14 13 12 11 11 11 10 10 10 10 10 10 9 9 10 10
19 20 20 21 22 22 23 23 24 23 23 23 23 23 24 24 24 24 24 25 24 23 24 26 26 28 29 30 31 31 30 30 30 30 31 33 34 34 33 34 33 33 32 32 33 31 28 27 26 26 26 25 23 22 21 20 20 21 20 19 17 17 16 15 14 14 14 15 15 15 14 14 13 12 12 12 12 12 11 11 11 10 10 11 11
20 20 21 21 22 23 23 24 24 24 24 24 24 24 24 25 25 25 25 25 25 24 24 26 26 27 29 30 31 31 30 30 30 31 31 33 35 35 35 35 34 32 32 33 32 31 29 28 27 27 27 26 24 23 22 21 21 21 21 20 19 17 17 16 15 15 15 15 15 15 15 15 14 13 13 13 13 13 12 12 12 11 11 12 12
21 21 21 21 22 23 23 24 24 24 24 25 25 25 25 26 26 27 26 26 26 26 26 27 27 27 28 29 30 30 30 30 31 32 32 33 35 36 36 35 35 33 33 33 33 32 32 30 29 28 27 27 26 25 24 23 22 22 22 21 20 19 18 18 17 16 16 16 16 16 16 16 15 14 13 13 13 14 14 13 13 13 12 12 13
21 21 21 22 22 22 23 23 24 25 25 25 26 26 26 26 27 27 28 28 27 27 27 28 29 29 28 28 28 28 29 30 31 32 33 33 35 37 36 36 36 35 34 34 34 34 33 32 31 29 28 28 28 26 25 24 24 23 22 22 21 20 19 19 18 17 16 17 17 17 17 17 17 16 15 14 14 14 15 15 14 14 14 13 14
22 22 22 22 22 22 23 24 24 25 26 26 27 27 27 28 28 28 28 29 29 28 28 28 30 30 29 28 28 28 29 30 31 32 33 35 37 38 37 37 36 35 36 35 35 35 34 32 31 30 29 29 29 28 27 26 25 25 24 23 22 22 21 20 19 18 17 17 18 18 18 17 17 18 17 16 16 15 15 16 16 15 15 15 15
23 23 23 23 23 23 23 24 25 26 26 27 27 28 28 28 29 29 29 28 28 28 28 28 29 30 29 29 29 30 31 32 32 33 34 36 37 37 37 37 36 35 36 36 37 37 35 32 32 32 31 30 30 29 29 28 27 26 25 24 24 23 22 21 20 19 19 18 19 19 19 18 18 19 19 18 17 17 16 17 17 16 16 16 16
24 24 23 23 23 23 24 25 26 26 27 27 27 28 28 29 29 29 29 28 28 28 28 28 29 30 30 29 29 30 31 32 33 34 34 34 34 35 35 35 35 35 36 37 38 39 36 33 34 34 32 31 31 31 30 30 29 29 27 26 25 24 23 22 21 21 20 19 19 19 19 19 19 19 20 19 19 18 18 17 17 17 17 17 17
25 24 24 23 23 24 25 26 26 26 26 27 27 28 28 29 29 29 29 28 28 27 27 28 29 30 30 29 30 30 31 32 33 34 33 32 32 33 34 33 34 34 36 38 38 40 38 34 34 35 34 33 33 33 32 31 31 31 29 27 26 25 24 23 23 22 21 21 20 20 20 20 20 20 20 21 20 20 19 19 19 18 18 18 18
25 25 25 24 24 25 25 26 26 26 26 26 27 27 28 28 28 29 29 29 28 27 27 28 29 30 30 30 30 30 30 31 32 32 32 31 29 30 33 34 33 33 35 37 39 40 39 36 36 37 36 35 35 34 33 33 32 32 31 29 27 26 25 24 24 24 23 22 21 21 20 21 21 21 21 21 22 21 21 21 20 20 19 18 19
26 26 25 25 25 25 26 26 26 26 26 26 26 27 27 28 28 28 28 28 28 28 28 28 29 30 29 29 29 29 29 30 31 30 31 31 28 27 31 33 33 33 34 36 38 39 39 37 39 39 37 36 37 36 35 35 34 33 32 30 29 27 26 25 25 26 25 24 23 21 21 21 22 22 22 22 22 23 22 22 22 21 20 19 19
27 26 26 26 26 26 26 26 26 26 26 26 26 26 27 28 28 28 28 28 28 28 28 28 29 29 28 28 28 27 27 28 29 28 29 31 28 25 27 31 33 33 34 35 37 39 40 40 42 41 39 38 39 38 38 37 35 34 32 31 30 29 28 27 27 27 27 25 24 23 22 22 23 23 23 23 23 23 24 23 23 23 22 21 20
27 27 27 27 26 27 27 27 27 26 26 26 26 26 27 27 28 28 28 28 28 28 28 28 29 29 27 27 28 27 27 27 27 27 28 29 28 26 25 28 32 33 33 36 38 39 41 44 45 44 42 42 41 41 40 38 37 35 33 32 32 30 29 29 29 29 28 27 25 25 24 24 24 24 24 23 24 24 24 24 25 24 24 22 21
27 27 27 27 27 27 28 28 28 27 27 27 27 27 27 27 28 28 28 28 27 27 27 28 28 29 27 26 27 28 28 27 26 26 27 28 27 26 25 26 30 31 32 36 39 40 41 45 47 45 44 43 43 43 42 40 38 35 33 33 33 32 31 31 30 30 29 28 27 27 26 25 25 25 24 24 24 24 25 25 25 26 25 24 23
27 27 28 28 28 28 28 29 29 29 29 29 29 28 28 28 28 29 29 29 28 27 27 27 27 27 27 26 27 28 29 29 27 26 26 27 26 26 26 25 28 31 33 34 38 40 41 45 46 45 44 44 43 43 43 41 39 36 34 33 34 33 32 31 30 30 30 29 29 28 28 27 26 26 25 25 25 25 25 25 26 26 26 26 25
27 27 28 28 28 29 29 30 30 30 30 30 30 29 29 29 29 29 29 30 29 28 28 28 28 27 26 25 26 27 29 30 29 28 27 27 27 27 26 25 25 29 33 34 35 37 39 42 44 42 42 43 41 41 42 41 40 38 35 34 34 34 33 30 30 31 31 31 31 30 30 28 27 27 27 26 25 26 26 26 26 27 27 27 27
28 28 29 29 29 30 30 31 31 31 32 32 31 31 30 30 30 30 30 31 31 30 29 29 29 28 27 25 25 26 27 28 30 30 29 28 27 27 26 25 25 27 31 33 33 35 36 38 41 41 41 42 40 40 42 42 41 39 37 36 35 35 33 31 31 32 33 33 33 33 31 30 29 28 28 27 26 27 27 26 26 27 28 28 28
30 30 30 30 30 31 31 32 32 33 33 33 33 33 32 32 31 31 31 32 32 32 32 31 30 30 28 27 26 25 26 26 28 30 31 30 28 27 27 26 26 26 29 31 32 34 37 39 40 41 42 42 40 41 43 43 41 40 39 38 37 35 34 32 32 33 34 35 35 34 33 31 30 30 29 28 28 28 28 27 27 27 28 29 30
32 32 31 32 32 32 33 33 33 34 35 35 35 35 35 34 33 32 32 32 33 33 33 33 32 32 31 29 28 26 26 25 26 29 30 30 29 28 27 27 26 26 28 31 31 31 35 38 39 39 41 41 40 41 43 43 43 43 42 40 38 36 35 34 34 34 35 36 36 35 34 32 32 31 30 30 29 29 29 28 28 28 28 29 30
34 34 33 33 33 34 34 34 35 35 35 36 36 37 37 36 35 34 33 33 33 33 34 34 34 33 32 32 30 29 27 26 25 27 29 30 29 29 28 27 27 27 27 29 32 31 30 33 37 38 38 39 38 39 41 43 45 45 43 41 39 38 38 37 36 35 36 36 36 36 34 34 33 32 31 31 31 30 30 30 29 29 29 30 30
35 35 35 35 35 35 35 35 35 35 36 36 37 38 38 38 38 37 36 35 34 34 34 35 34 34 33 33 33 32 30 28 27 27 28 29 28 29 29 28 28 27 26 27 30 32 31 31 35 38 37 37 37 38 39 42 44 45 44 42 39 39 40 39 36 36 36 36 36 36 35 35 35 34 32 32 33 32 32 31 30 30 31 31 31
36 36 36 36 36 37 37 37 37 37 37 37 37 38 39 40 40 40 39 38 37 36 36 35 35 34 34 33 33 33 32 31 29 28 28 28 28 28 28 29 29 28 27 28 28 30 31 31 32 35 38 39 39 40 40 41 43 44 44 43 40 39 41 40 37 36 38 38 37 36 36 36 36 35 35 34 34 34 33 32 32 32 32 32 32
36 36 36 37 37 38 38 38 39 39 39 39 39 39 40 41 41 41 42 41 40 39 38 37 36 35 34 34 34 34 33 33 32 30 29 29 28 27 27 28 30 29 28 28 27 28 29 30 30 32 36 40 42 42 40 41 43 44 45 44 43 42 43 42 39 39 41 41 39 37 37 37 37 37 36 36 36 35 34 33 33 33 33 34 33
36 37 37 37 38 38 39 39 40 40 41 41 41 41 41 42 43 43 43 43 43 42 41 40 39 37 36 35 34 34 34 34 34 33 31 30 29 28 27 27 28 29 30 29 28 30 31 31 32 34 35 38 41 43 42 42 43 45 45 46 46 45 45 43 41 41 42 43 41 39 39 38 38 38 37 37 37 36 35 35 34 34 35 35 35
37 37 38 38 39 39 40 40 41 41 42 42 42 42 42 42 43 44 44 45 45 44 43 43 42 40 39 37 36 36 36 35 35 34 34 33 31 29 28 28 28 28 30 30 29 32 33 33 32 33 36 38 40 42 44 44 45 45 46 47 47 46 45 44 43 43 43 43 42 42 41 39 38 39 39 38 38 37 37 36 36 36 37 37 37
38 38 38 39 39 40 40 41 41 42 42 42 42 42 42 43 43 43 44 45 45 45 45 44 44 43 42 40 39 38 37 36 36 36 35 35 34 32 30 30 29 28 29 30 30 31 34 35 33 31 33 37 39 41 43 45 45 46 46 47 48 47 46 45 44 45 44 43 43 43 43 41 41 41 41 40 39 39 38 38 37 38 39 40 39
38 38 39 39 39 39 40 40 41 41 41 42 42 42 42 43 43 43 44 44 45 46 46 46 45 45 44 43 42 41 40 39 38 37 37 37 36 35 33 32 31 30 29 30 31 32 33 34 34 32 31 32 34 38 42 45 46 46 46 47 48 49 47 46 45 46 45 45 45 44 44 44 43 43 43 43 41 41 40 39 39 40 40 41 41
38 38 38 38 38 38 39 39 40 40 41 41 42 42 43 43 43 44 44 44 45 46 46 47 47 46 46 46 45 44 43 42 40 39 38 38 38 37 36 34 33 32 31 30 30 32 33 33 34 33 32 32 32 34 38 42 43 44 45 46 47 48 49 48 47 46 45 45 46 46 44 44 45 45 45 44 43 42 41 41 41 41 41 42 43
38 38 37 38 38 38 39 39 40 40 41 42 43 44 45 45 46 46 47 47 47 47 48 48 48 48 48 48 47 47 46 45 43 41 39 39 39 39 38 37 35 34 33 32 31 31 32 33 33 33 33 34 34 34 36 39 39 40 43 45 46 47 48 49 48 47 45 46 48 47 45 44 45 46 46 46 44 43 43 42 42 43 43 43 44
37 37 37 38 38 38 39 40 41 43 44 45 46 47 48 48 49 49 50 50 50 51 51 51 51 51 50 50 49 48 47 47 46 44 41 40 39 40 40 39 37 36 35 34 32 32 32 32 33 34 34 35 36 36 37 39 38 38 40 41 42 43 45 47 49 48 47 47 48 47 45 45 46 48 49 49 48 47 45 44 44 45 45 44 44
36 37 37 38 39 40 42 43 45 46 46 46 47 47 47 48 48 48 49 50 51 51 52 53 53 54 54 54 52 51 50 49 48 46 43 41 40 40 41 40 39 38 37 35 34 34 33 32 33 34 35 36 37 37 37 38 38 38 39 40 41 41 42 45 48 48 48 50 50 48 46 45 45 47 49 50 50 49 46 45 46 46 46 45 44
36 37 38 39 41 42 43 44 44 44 44 44 44 45 46 46 47 48 49 49 50 50 51 51 52 53 54 55 55 55 53 52 51 49 46 43 41 41 41 41 41 40 39 38 37 35 34 34 34 35 36 36 37 36 37 37 36 36 37 39 41 42 43 44 45 46 47 48 49 50 48 46 45 48 50 50 50 49 47 46 47 47 47 46 44
36 38 39 40 41 42 41 41 41 42 43 43 44 45 46 47 48 49 50 50 51 51 52 52 52 52 53 54 55 56 56 55 54 52 50 47 43 42 42 42 42 41 40 40 39 37 36 36 35 35 36 36 36 35 35 36 36 37 37 37 37 40 42 43 44 45 46 47 48 49 49 46 45 47 49 50 51 51 49 48 48 48 47 45 44
37 38 39 39 39 39 39 40 41 42 43 44 45 46 47 48 49 49 50 51 51 52 52 53 53 53 53 53 54 54 55 56 56 54 52 50 47 44 43 42 43 43 42 41 40 39 37 37 37 36 36 37 36 36 35 35 36 37 38 37 36 37 39 41 42 44 46 48 48 49 48 47 46 48 49 51 53 53 51 50 50 48 47 44 44
37 37 37 37 38 38 39 40 41 42 43 44 45 45 46 47 47 48 49 50 51 52 52 52 53 53 53 53 54 54 54 55 56 55 53 52 51 48 44 43 44 44 44 43 42 41 39 38 38 37 37 37 37 36 35 35 35 36 37 39 39 38 37 38 41 43 44 45 47 49 49 47 48 49 49 50 53 53 53 53 52 50 47 45 44
Wind_Direction
306 306 306 306 310 315 319 319 314 303 294 289 286 290 298 302 305 305 302 296 289 278 266 258 253 251 257 264 268 270 270 271 271 266 260 259 258 256 253 253 257 264 271 277 279 281 285 291 294 296 298 302 305 308 312 317 317 315 313 311 307 303 297 289 282 272 263 255 251 251 257 266 273 277 279 280 281 283 286 288 289 289 292 300 313
306 309 309 309 313 314 317 318 316 309 299 292 290 295 301 301 301 302 302 300 294 285 273 262 256 252 253 259 266 271 272 271 271 269 264 261 260 258 254 252 254 261 269 274 278 281 284 288 292 294 297 303 308 310 313 316 316 314 312 310 306 303 296 287 279 271 262 256 252 251 256 264 268 269 267 266 269 274 278 279 273 267 270 280 303
307 311 314 317 318 318 319 317 314 309 302 298 298 298 299 298 297 296 297 296 294 288 279 268 260 255 253 255 261 268 273 274 272 272 270 267 265 262 259 254 252 257 265 271 275 279 283 286 290 293 296 301 307 311 312 313 314 312 311 308 304 302 296 286 277 268 261 257 254 253 256 262 263 259 255 254 258 264 267 265 262 261 251 250 297
306 310 315 318 319 320 321 319 314 309 304 301 300 298 296 297 299 298 297 295 292 290 284 274 263 256 255 254 257 264 270 273 272 272 272 270 268 266 263 258 252 254 261 268 272 275 280 284 288 293 295 299 305 308 309 310 311 309 308 305 301 299 294 288 280 270 263 260 258 256 256 258 257 254 253 253 255 256 254 255 258 255 237 235 296
304 307 311 312 315 319 322 320 316 313 308 299 295 296 296 299 301 300 298 296 293 291 289 281 268 256 254 254 256 262 267 269 269 268 270 270 268 266 264 261 256 253 258 264 270 273 276 280 285 290 292 295 301 305 306 308 309 307 303 300 295 293 292 287 282 276 269 263 261 259 256 256 254 255 256 255 255 251 248 252 252 246 237 244 299
301 304 305 306 310 315 321 321 318 318 315 308 304 304 302 300 301 302 300 299 297 295 295 290 276 259 252 253 255 260 264 267 268 267 268 270 269 267 264 263 260 256 256 260 266 271 274 278 282 286 289 292 298 301 302 304 307 305 298 293 288 285 286 284 281 278 274 268 264 262 259 257 257 258 257 254 252 252 252 251 247 246 247 261 301
302 304 305 306 309 313 317 319 319 320 321 318 315 313 309 303 302 302 300 299 298 299 301 299 287 265 251 251 254 259 263 266 269 268 268 270 270 269 266 264 263 260 258 259 263 268 272 276 280 284 287 290 294 296 298 299 302 303 295 286 281 279 281 281 279 276 273 269 267 266 265 263 261 261 259 255 253 253 253 248 244 247 251 269 289
303 305 308 309 311 312 314 316 316 318 321 320 319 318 315 311 308 306 304 301 300 303 302 299 293 272 252 248 253 261 265 264 266 268 267 267 267 267 267 264 262 260 259 259 261 265 268 272 276 280 283 287 290 293 294 295 296 297 290 280 276 276 277 279 278 274 271 270 270 270 271 269 266 263 259 258 256 254 250 244 243 246 251 263 268
300 303 308 310 312 312 312 313 314 315 317 319 320 319 317 314 312 311 309 303 300 302 300 294 290 277 256 247 250 260 264 259 260 265 266 265 262 263 266 264 261 261 259 258 260 262 265 268 272 275 279 282 286 289 291 290 290 291 285 276 273 273 273 276 276 275 274 272 272 271 272 272 270 267 263 261 258 254 249 244 243 244 246 255 253
299 302 307 310 312 312 313 313 314 315 317 319 321 319 315 314 312 310 307 300 296 298 299 295 289 282 268 254 251 255 259 257 256 259 261 260 258 259 264 265 264 264 261 258 258 261 263 266 270 272 275 278 281 284 286 287 286 284 280 274 271 270 268 270 273 276 276 274 272 270 270 270 271 269 266 263 257 252 248 245 245 245 248 251 243
300 303 307 310 311 311 311 312 313 314 316 318 320 318 315 313 310 307 305 300 296 295 294 292 287 283 278 266 256 253 256 258 257 255 255 255 255 255 259 264 264 263 263 260 258 260 263 264 266 269 271 274 278 281 283 285 284 281 277 272 270 269 267 267 272 276 276 274 271 269 267 266 268 268 264 261 255 251 248 247 250 251 253 250 235
302 305 308 310 310 310 310 310 311 313 315 316 316 314 313 313 311 305 302 300 299 297 292 288 283 278 276 273 266 259 255 257 258 256 252 251 253 252 253 258 260 261 263 262 259 259 262 263 263 265 268 271 274 278 280 282 283 281 276 270 269 269 268 267 270 274 277 276 272 268 267 266 265 264 260 256 251 250 249 251 255 257 256 246 227
304 306 308 309 309 309 309 309 310 311 313 314 313 312 311 312 311 307 304 303 300 297 291 285 280 274 270 269 270 267 260 256 257 257 255 251 251 250 249 251 256 259 261 262 260 258 259 261 261 262 264 267 270 273 276 278 279 279 277 271 268 268 268 268 269 271 276 279 276 270 267 264 262 260 256 252 247 247 249 253 258 260 257 240 222
301 303 304 306 307 307 308 308 309 310 311 312 312 312 312 313 312 310 308 307 302 297 290 284 280 277 273 269 270 271 267 261 257 255 254 252 250 249 250 251 253 256 258 262 260 257 257 258 259 258 260 262 266 269 271 273 275 276 275 272 268 267 268 269 267 268 273 278 276 271 265 261 258 257 254 251 247 248 250 254 260 260 254 238 222
298 299 301 303 305 307 307 307 307 309 310 311 312 312 314 314 314 313 311 310 305 299 293 287 282 280 278 275 272 271 270 268 263 254 251 250 249 250 251 252 253 254 256 259 260 258 257 257 257 256 255 258 261 265 267 268 270 271 272 271 269 267 268 269 269 268 270 273 274 270 264 258 255 254 252 250 249 251 254 258 261 259 252 240 226
296 298 300 302 305 306 306 305 305 307 310 311 312 313 314 315 315 315 315 313 308 301 296 292 286 282 280 278 274 270 270 271 269 260 252 250 250 250 251 251 252 254 255 256 257 257 256 255 254 253 253 254 257 260 263 265 266 267 268 268 267 267 267 268 270 270 267 268 271 270 265 258 255 253 251 250 250 253 256 259 262 259 251 243 234
294 296 300 302 303 304 303 302 304 306 309 311 311 312 314 315 316 316 316 314 311 306 301 298 294 289 284 280 274 271 269 269 269 265 258 253 251 251 251 249 250 252 254 254 254 254 253 252 252 251 250 252 254 257 260 262 264 264 264 264 264 264 265 266 268 269 267 266 267 267 265 262 257 254 252 250 251 253 256 259 262 260 253 246 240
295 297 300 302 302 302 302 302 303 307 310 311 311 312 314 315 317 317 315 313 311 308 304 302 300 294 287 281 276 272 270 267 267 267 262 255 252 251 251 249 248 251 253 253 252 253 253 251 250 249 248 249 252 254 258 260 262 262 261 261 261 261 262 262 264 266 267 266 265 264 264 264 260 256 253 251 252 253 255 256 259 261 256 249 244
297 299 301 302 302 302 302 302 304 308 310 310 310 312 313 315 317 317 316 312 309 308 305 302 301 296 289 283 278 275 271 268 268 268 266 260 255 252 251 250 249 249 251 251 251 252 252 250 248 247 246 247 249 252 255 258 260 260 259 259 258 258 259 259 260 263 266 267 266 263 263 264 262 259 255 252 253 253 254 254 256 259 259 253 249
298 301 302 302 302 301 301 302 305 307 308 308 308 310 311 313 316 317 317 313 309 306 304 302 301 298 292 285 280 276 273 270 268 267 267 265 260 255 253 252 249 246 249 251 250 250 250 248 246 245 244 245 247 249 252 255 258 258 257 258 257 256 257 257 257 259 264 267 266 263 263 262 261 260 257 254 253 254 254 253 253 256 259 258 254
298 300 301 301 301 300 301 303 303 304 305 306 307 308 309 311 313 315 316 314 310 306 303 301 300 297 294 288 282 276 272 270 269 267 266 267 264 259 255 253 250 246 247 251 251 251 252 248 245 244 244 244 245 246 249 252 256 257 256 256 256 255 255 255 255 256 260 265 265 264 263 261 260 259 258 256 254 254 254 253 253 254 257 259 257
296 299 301 302 303 303 303 302 301 302 304 306 306 307 308 309 311 313 314 313 310 307 303 300 297 295 294 290 284 277 272 270 269 266 267 267 265 261 257 255 253 247 245 249 252 253 253 249 246 245 244 244 245 245 247 250 253 255 256 255 255 253 253 253 254 254 257 261 264 265 264 262 260 258 258 257 255 253 253 252 252 253 255 257 258
297 299 301 304 305 305 303 301 301 302 304 305 306 307 308 309 310 311 312 313 311 308 305 301 297 295 293 290 286 281 275 271 268 267 271 273 267 260 258 256 254 248 243 246 250 252 254 250 246 244 243 243 244 244 245 247 250 253 254 254 253 252 250 251 252 253 255 258 262 265 267 265 261 258 256 256 255 253 252 251 251 253 255 256 257
298 300 302 304 306 304 302 300 301 302 304 306 307 307 307 308 308 310 311 313 312 308 305 302 299 296 292 289 286 284 280 275 270 269 275 279 270 260 256 255 254 250 244 243 247 251 253 249 244 244 244 242 242 243 243 245 247 250 251 252 252 250 249 249 251 252 253 255 259 263 266 267 264 260 257 255 255 253 252 251 250 252 255 257 256
298 300 301 303 303 302 301 301 302 302 304 306 307 307 307 307 308 309 311 313 313 310 306 303 301 298 295 291 286 284 284 279 275 272 275 280 274 261 255 253 251 250 246 244 246 250 251 248 245 245 245 243 242 241 242 243 245 247 249 250 251 250 248 248 249 250 251 253 256 260 264 266 266 263 258 255 254 253 252 251 251 252 254 256 257
298 298 299 301 301 301 301 301 301 301 302 304 305 305 305 306 307 309 311 313 314 312 308 304 300 297 295 293 288 286 285 283 281 276 275 279 276 264 257 252 248 249 249 246 246 248 251 249 245 244 243 242 241 241 240 242 244 246 247 249 250 249 248 247 247 249 250 250 252 256 260 264 266 265 261 256 254 253 253 251 251 252 253 254 255
296 297 298 299 300 300 300 300 299 300 300 302 303 303 304 304 306 308 310 313 314 314 313 309 303 299 295 292 289 287 286 285 284 279 275 276 277 270 263 256 249 247 249 249 248 248 250 250 246 244 243 241 241 240 240 240 242 244 246 248 249 249 247 246 246 247 248 248 249 252 256 260 263 264 263 259 255 253 253 252 252 252 253 253 253
295 296 297 298 298 298 299 298 298 298 299 300 301 302 303 303 304 306 308 311 314 315 315 314 311 306 300 294 291 289 288 286 284 281 276 276 278 277 272 263 256 251 249 249 249 247 247 248 247 244 242 241 240 239 238 239 241 242 244 247 248 248 247 245 244 245 246 247 248 249 251 255 259 262 263 261 257 255 254 253 253 252 252 252 251
295 296 297 297 297 297 298 298 298 298 298 298 299 300 300 301 301 303 305 308 311 314 315 316 317 315 308 299 294 292 291 288 286 282 277 275 278 281 277 266 259 256 252 250 251 250 247 244 244 243 240 239 239 239 238 237 239 240 241 244 246 247 248 246 245 245 245 246 246 247 248 251 255 258 261 262 260 257 255 254 254 253 253 253 252
296 297 298 298 298 298 298 298 298 298 297 298 298 299 299 299 299 300 302 305 308 311 313 315 316 318 316 307 298 295 293 291 288 283 279 277 277 281 281 270 259 255 254 253 253 255 252 245 243 242 240 239 238 239 239 238 238 239 240 243 246 247 248 248 246 246 246 246 246 247 247 248 252 256 258 261 261 259 256 254 254 254 254 253 252
299 299 300 300 299 299 299 298 298 298 297 297 298 299 299 298 299 299 301 302 304 306 309 311 313 315 317 313 305 298 295 294 292 287 282 279 277 278 280 276 264 254 253 255 255 256 255 248 243 242 240 239 239 240 240 239 239 240 240 242 245 246 248 249 248 247 247 246 246 247 247 247 249 253 256 258 260 260 258 255 254 255 255 254 253
301 301 301 301 300 300 299 299 299 298 298 297 297 298 298 298 298 298 299 300 301 302 304 305 308 310 313 314 310 304 298 296 295 292 286 281 278 277 278 278 273 261 253 254 257 260 259 248 241 241 242 241 241 241 241 241 240 240 240 241 244 245 247 248 248 247 246 246 246 247 247 248 249 251 254 256 258 260 259 258 255 255 254 254 254
303 302 302 301 301 300 299 299 299 299 298 298 297 297 297 297 297 297 297 298 299 299 300 300 302 304 307 310 310 308 303 299 296 294 290 284 279 277 277 276 277 271 259 253 255 260 259 251 241 239 242 244 241 239 240 240 239 239 238 239 242 244 246 247 247 247 246 246 247 247 247 248 249 251 252 254 256 258 259 259 258 256 255 254 254
303 303 303 302 301 301 300 300 299 299 299 298 298 298 297 297 297 297 296 296 297 297 298 298 298 299 301 304 305 306 306 303 298 294 291 287 282 277 275 273 273 272 264 256 257 257 253 249 245 240 241 245 243 240 239 239 238 238 236 236 239 241 243 245 245 246 247 246 247 248 247 248 249 251 253 254 255 256 258 260 260 258 257 255 254
302 302 302 302 302 302 301 300 299 299 298 298 298 298 297 297 296 296 295 294 294 294 295 296 296 296 297 299 300 301 302 303 301 297 293 289 285 279 275 272 270 271 265 257 258 258 251 245 245 244 243 244 244 241 240 239 239 238 236 235 237 240 242 244 244 245 246 247 247 248 248 248 249 250 252 254 255 256 257 259 259 259 259 258 256
301 301 302 303 302 302 301 300 299 299 298 298 297 297 297 296 296 296 295 294 293 292 292 293 293 294 293 294 295 296 298 299 299 299 296 292 288 281 276 271 268 269 269 263 257 257 256 249 246 247 246 243 242 243 243 241 240 239 237 236 237 240 243 244 244 244 245 246 247 248 248 248 249 250 252 254 256 256 257 258 258 259 259 259 258
301 302 303 303 303 302 301 301 300 299 298 297 297 296 296 296 296 296 295 294 293 292 291 291 291 291 291 291 291 292 293 295 295 296 296 295 292 285 278 272 268 265 266 266 260 255 257 256 249 247 247 244 243 245 247 246 243 240 239 238 237 240 243 244 244 245 246 246 246 247 248 248 249 250 251 252 254 256 257 258 258 258 259 260 260
302 303 304 304 304 303 303 303 302 301 300 298 297 296 296 295 295 295 295 295 294 292 291 290 289 289 289 289 289 289 289 291 292 293 294 295 294 290 282 274 270 266 262 263 262 258 258 259 253 246 245 246 246 247 247 248 246 243 242 239 237 239 244 245 243 243 246 246 245 246 246 246 248 249 249 251 252 255 257 258 258 258 259 259 260
304 304 304 304 304 304 304 304 303 303 302 300 299 297 296 296 295 295 295 294 294 293 292 290 288 287 287 287 287 287 287 287 288 289 290 291 292 292 289 280 272 268 264 260 258 257 258 261 260 254 249 246 246 247 248 247 246 245 243 240 236 237 241 243 241 241 244 245 245 245 246 246 246 247 249 250 252 253 255 257 258 258 258 258 259
304 305 305 304 304 304 303 303 302 302 301 300 299 297 296 296 295 294 294 293 293 292 292 291 289 287 285 285 284 285 285 285 285 286 286 287 288 288 289 286 279 271 266 261 255 252 252 253 254 255 254 251 248 247 246 247 248 248 244 239 236 235 238 242 243 244 246 247 247 247 247 246 246 248 249 251 253 253 254 256 258 259 259 258 258
305 305 305 305 304 304 303 303 302 301 300 299 298 296 295 294 293 293 293 292 291 291 290 290 289 287 286 284 282 282 282 283 284 284 283 282 283 284 284 285 284 278 270 265 259 254 253 254 251 248 249 252 253 249 245 246 248 247 243 239 237 236 237 238 241 243 245 247 249 250 249 247 248 249 251 252 254 254 253 254 257 259 259 258 257
306 306 306 306 305 304 304 303 302 301 300 299 298 297 295 294 292 291 291 290 289 289 288 288 287 287 285 284 282 281 280 280 281 281 281 280 279 280 280 280 281 281 276 269 264 258 257 258 258 253 248 249 253 251 245 244 245 244 242 239 238 237 237 237 239 242 243 244 246 249 250 250 249 249 251 252 253 253 252 252 254 257 258 258 258
308 308 307 307 306 305 304 303 302 301 300 299 299 298 297 295 294 292 291 289 289 287 287 286 285 284 284 283 282 281 279 278 278 278 278 278 277 277 277 277 277 278 278 274 268 263 259 258 259 259 254 250 250 248 244 243 244 244 243 241 239 237 237 238 239 240 242 243 244 245 247 248 248 249 250 251 251 251 251 251 252 255 256 258 258
309 309 308 308 307 306 305 304 303 302 301 301 300 299 298 296 295 294 292 290 289 288 286 285 284 283 282 282 281 280 279 277 276 276 275 276 276 275 274 274 275 275 275 275 272 267 263 259 258 257 256 253 252 249 246 246 247 246 245 243 240 238 238 238 239 241 242 244 245 246 244 245 248 250 251 251 250 250 251 251 252 254 255 257 258
309 309 308 308 307 306 306 305 304 304 303 302 301 300 299 298 296 295 293 291 290 288 286 285 284 282 281 281 280 279 278 277 275 273 272 272 273 273 272 271 272 272 272 272 272 270 266 262 259 257 255 254 253 251 251 252 251 249 247 245 242 239 239 239 240 242 244 245 247 247 244 243 246 249 251 252 251 251 251 251 252 254 255 257 258
309 309 309 308 308 308 307 307 306 305 304 303 302 301 299 298 297 295 294 292 290 288 286 284 283 281 280 279 279 278 278 276 275 272 270 269 268 269 270 269 269 269 270 269 269 270 269 266 262 259 256 254 252 250 250 250 250 249 248 246 245 243 243 242 242 242 244 246 248 247 244 243 245 249 251 253 253 253 252 252 252 253 254 256 259
310 310 310 310 310 310 309 308 307 305 304 304 303 302 301 300 299 297 296 294 291 289 287 284 282 280 279 277 276 276 275 275 274 272 270 267 264 264 265 267 267 267 266 267 267 267 267 267 264 261 258 255 253 252 250 249 248 247 246 246 246 247 247 247 246 244 244 247 248 247 245 245 246 248 251 253 255 254 252 252 253 254 254 257 260
311 311 311 311 311 310 309 308 308 308 308 308 308 308 307 306 304 303 301 298 296 293 289 286 283 280 277 276 274 272 271 271 271 271 269 266 262 260 260 262 264 265 264 264 264 264 264 264 263 261 260 257 256 254 252 250 248 248 248 246 246 247 250 250 249 247 246 247 248 248 247 245 243 244 248 251 254 253 252 252 253 253 254 257 259
312 312 312 311 311 311 311 311 312 313 313 313 312 311 310 309 308 306 305 302 300 297 294 291 287 283 279 275 273 270 269 267 267 267 267 266 262 258 256 257 260 262 263 262 261 261 262 262 262 262 261 260 259 257 255 252 249 248 249 249 247 247 249 249 249 248 248 248 248 248 247 244 241 242 245 249 252 252 252 252 252 253 255 257 258
312 312 312 312 313 313 314 315 315 315 315 314 314 313 312 311 310 309 307 305 303 300 298 294 291 287 282 277 273 270 267 265 264 263 263 263 261 257 253 253 255 258 260 260 260 259 259 260 260 260 260 260 260 259 258 257 253 249 247 248 249 248 247 247 248 248 248 248 248 247 245 243 241 241 243 246 250 251 251 252 254 256 257 257 258
312 313 314 315 315 316 316 316 316 316 315 315 315 315 314 314 313 312 311 310 308 305 302 299 295 290 286 281 276 271 267 264 261 259 258 257 257 255 252 249 250 252 255 257 258 256 254 255 256 257 257 258 258 258 258 258 257 254 249 246 247 248 247 247 247 248 250 249 247 246 245 243 243 243 242 244 248 251 251 252 254 256 256 256 256
Height
5837 5836 5835 5834 5833 5832 5831 5831 5830 5830 5829 5829 5828 5828 5828 5827 5827 5826 5825 5825 5825 5825 5826 5827 5826 5826 5825 5823 5822 5822 5823 5823 5823 5824 5823 5823 5823 5822 5822 5822 5822 5822 5822 5822 5822 5822 5821 5821 5820 5819 5818 5818 5817 5816 5816 5816 5815 5814 5814 5813 5812 5811 5811 5810 5810 5810 5810 5810 5810 5810 5810 5810 5810 5811 5811 5811 5811 5811 5811 5810 5810 5810 5810 5810 5810
5836 5835 5834 5833 5832 5831 5831 5830 5829 5829 5828 5828 5828 5828 5827 5827 5826 5825 5824 5824 5823 5823 5824 5825 5825 5824 5823 5822 5821 5821 5821 5822 5822 5822 5822 5822 5822 5821 5821 5820 5821 5821 5821 5821 5821 5821 5820 5820 5819 5818 5818 5817 5816 5815 5815 5815 5814 5814 5813 5812 5812 5811 5810 5810 5810 5809 5809 5809 5809 5809 5809 5809 5810 5810 5810 5810 5810 5810 5810 5810 5810 5810 5810 5810 5810
5835 5834 5833 5833 5832 5831 5830 5829 5828 5827 5827 5828 5828 5827 5826 5826 5825 5824 5823 5823 5822 5822 5822 5822 5822 5822 5822 5821 5820 5820 5819 5820 5820 5820 5820 5821 5821 5820 5820 5819 5819 5819 5820 5820 5820 5819 5819 5819 5818 5817 5817 5816 5815 5815 5814 5814 5813 5813 5812 5812 5811 5811 5810 5810 5809 5809 5809 5809 5809 5809 5809 5809 5809 5809 5809 5809 5809 5809 5809 5809 5809 5809 5809 5809 5809
5835 5834 5833 5832 5831 5830 5829 5828 5827 5826 5826 5827 5827 5825 5825 5824 5823 5823 5822 5822 5821 5821 5820 5819 5820 5820 5820 5819 5819 5819 5818 5818 5818 5819 5819 5819 5819 5819 5819 5818 5817 5817 5818 5818 5818 5818 5818 5817 5817 5816 5816 5815 5815 5814 5813 5812 5812 5812 5812 5811 5811 5810 5810 5809 5809 5809 5808 5808 5809 5809 5808 5808 5809 5809 5809 5809 5809 5809 5809 5809 5809 5809 5809 5809 5809
5834 5833 5832 5831 5830 5830 5829 5827 5826 5825 5825 5825 5825 5824 5823 5823 5822 5821 5821 5820 5819 5819 5818 5817 5817 5817 5818 5818 5818 5818 5817 5816 5816 5817 5817 5817 5817 5817 5817 5817 5816 5815 5816 5816 5817 5817 5816 5816 5816 5815 5815 5815 5814 5813 5812 5811 5811 5811 5811 5810 5810 5810 5809 5809 5809 5808 5808 5808 5808 5808 5808 5808 5808 5808 5808 5808 5808 5808 5808 5808 5808 5809 5809 5809 5808
5833 5833 5832 5831 5830 5829 5828 5827 5826 5825 5824 5824 5823 5822 5822 5821 5821 5820 5819 5818 5817 5816 5816 5815 5814 5815 5815 5816 5816 5816 5816 5815 5815 5815 5815 5815 5816 5816 5816 5816 5815 5814 5814 5814 5815 5815 5815 5814 5815 5814 5814 5814 5813 5812 5812 5811 5810 5810 5810 5809 5809 5809 5809 5808 5808 5808 5808 5808 5808 5808 5808 5808 5808 5808 5808 5808 5808 5808 5808 5808 5808 5808 5808 5808 5808
5832 5832 5831 5831 5830 5829 5828 5827 5825 5824 5824 5823 5822 5821 5820 5819 5819 5818 5817 5816 5815 5814 5814 5813 5812 5812 5813 5814 5814 5814 5814 5814 5813 5813 5814 5814 5814 5814 5814 5814 5813 5813 5812 5813 5813 5813 5813 5813 5813 5813 5813 5813 5812 5812 5811 5810 5809 5809 5809 5808 5808 5808 5808 5808 5808 5808 5807 5807 5807 5807 5807 5807 5807 5807 5808 5808 5808 5808 5808 5807 5808 5808 5808 5808 5808
5832 5831 5831 5830 5829 5829 5827 5826 5825 5824 5823 5822 5821 5820 5818 5817 5817 5816 5815 5814 5813 5813 5812 5811 5810 5810 5811 5812 5812 5812 5812 5812 5812 5812 5812 5812 5812 5812 5812 5811 5811 5811 5811 5811 5811 5812 5812 5812 5811 5812 5812 5811 5811 5811 5810 5809 5809 5808 5808 5808 5807 5807 5807 5807 5807 5807 5807 5807 5806 5806 5807 5807 5807 5807 5807 5807 5807 5807 5807 5807 5807 5807 5807 5808 5808
5832 5831 5830 5829 5828 5827 5826 5825 5824 5822 5821 5821 5820 5819 5818 5816 5815 5814 5813 5812 5812 5812 5810 5809 5808 5808 5808 5809 5810 5810 5810 5810 5810 5810 5810 5810 5810 5810 5809 5809 5809 5809 5809 5809 5809 5810 5810 5810 5810 5810 5810 5810 5810 5809 5809 5809 5808 5808 5807 5807 5806 5806 5806 5806 5806 5806 5806 5806 5806 5805 5806 5806 5806 5806 5807 5807 5807 5807 5807 5807 5807 5807 5807 5807 5807
5831 5830 5829 5828 5827 5826 5825 5824 5822 5821 5819 5819 5818 5817 5816 5815 5814 5813 5811 5811 5810 5810 5808 5807 5806 5805 5806 5807 5807 5807 5807 5807 5807 5807 5807 5807 5807 5807 5807 5807 5808 5808 5808 5807 5807 5808 5808 5808 5808 5808 5809 5809 5809 5808 5808 5808 5807 5807 5806 5806 5806 5805 5805 5805 5805 5805 5805 5805 5804 5804 5805 5805 5805 5805 5806 5806 5806 5807 5807 5807 5806 5806 5807 5807 5807
5830 5829 5828 5827 5826 5825 5824 5823 5821 5819 5818 5816 5815 5815 5814 5813 5812 5812 5810 5809 5808 5807 5806 5805 5804 5803 5803 5804 5804 5804 5804 5804 5804 5805 5805 5805 5805 5804 5805 5805 5806 5806 5806 5806 5806 5806 5807 5807 5806 5806 5807 5807 5807 5807 5807 5807 5807 5806 5805 5805 5805 5805 5804 5804 5804 5804 5804 5803 5803 5803 5804 5804 5804 5804 5805 5805 5805 5806 5806 5806 5806 5806 5806 5806 5806
5828 5827 5826 5825 5824 5824 5823 5821 5820 5818 5816 5815 5813 5812 5811 5811 5810 5810 5809 5808 5806 5805 5804 5803 5802 5802 5801 5801 5801 5801 5801 5801 5802 5802 5802 5802 5802 5801 5803 5803 5802 5803 5804 5804 5804 5804 5804 5805 5804 5804 5805 5805 5805 5805 5805 5805 5806 5805 5805 5804 5803 5804 5803 5803 5803 5803 5803 5802 5802 5802 5802 5803 5803 5803 5804 5804 5804 5805 5805 5805 5806 5806 5806 5806 5806
5826 5825 5824 5823 5822 5822 5821 5820 5819 5817 5815 5813 5812 5810 5809 5808 5808 5807 5806 5805 5804 5803 5802 5800 5800 5800 5799 5798 5798 5798 5799 5799 5799 5799 5799 5799 5799 5799 5800 5800 5799 5801 5802 5802 5802 5802 5802 5803 5803 5803 5803 5803 5803 5804 5804 5804 5804 5804 5803 5803 5802 5802 5802 5802 5802 5802 5802 5801 5801 5801 5801 5802 5802 5802 5802 5803 5803 5804 5804 5805 5805 5805 5805 5805 5805
5824 5823 5822 5821 5820 5820 5819 5818 5817 5816 5814 5812 5810 5808 5807 5806 5805 5804 5803 5802 5801 5799 5799 5798 5797 5796 5796 5796 5796 5796 5796 5796 5796 5796 5795 5795 5796 5796 5796 5796 5797 5798 5799 5799 5799 5799 5800 5800 5801 5801 5801 5801 5801 5801 5802 5802 5802 5803 5802 5802 5801 5801 5801 5801 5800 5800 5800 5800 5800 5800 5800 5800 5801 5801 5801 5802 5802 5802 5803 5803 5804 5804 5804 5805 5805
5822 5821 5820 5819 5818 5817 5817 5816 5815 5814 5812 5810 5808 5807 5806 5804 5803 5802 5801 5800 5798 5796 5795 5795 5794 5793 5793 5793 5793 5793 5792 5792 5792 5792 5791 5791 5793 5793 5793 5793 5794 5795 5796 5797 5797 5797 5797 5798 5798 5798 5799 5799 5799 5799 5800 5800 5800 5801 5801 5800 5800 5799 5799 5799 5799 5799 5799 5799 5799 5799 5799 5799 5800 5800 5800 5801 5801 5801 5802 5802 5803 5803 5803 5804 5804
5820 5819 5818 5817 5816 5815 5814 5813 5812 5811 5810 5808 5806 5805 5804 5802 5801 5799 5798 5797 5795 5793 5792 5791 5791 5790 5790 5790 5789 5789 5789 5789 5789 5788 5787 5788 5790 5790 5790 5790 5791 5791 5793 5794 5794 5794 5794 5795 5795 5796 5796 5796 5797 5797 5797 5798 5798 5799 5799 5799 5798 5798 5797 5797 5797 5797 5797 5797 5797 5798 5798 5798 5798 5799 5799 5799 5800 5800 5801 5801 5801 5802 5802 5803 5803
5818 5817 5816 5815 5814 5813 5812 5811 5810 5809 5808 5806 5804 5803 5801 5800 5799 5797 5796 5794 5792 5791 5789 5788 5787 5786 5786 5786 5785 5785 5785 5785 5785 5785 5784 5785 5786 5786 5787 5787 5787 5788 5789 5790 5791 5791 5791 5792 5792 5793 5794 5794 5794 5795 5795 5795 5796 5796 5797 5797 5797 5796 5796 5796 5796 5795 5795 5795 5795 5796 5796 5797 5797 5797 5798 5798 5798 5799 5799 5800 5800 5801 5801 5802 5802
5816 5815 5814 5813 5812 5811 5810 5808 5807 5806 5805 5804 5802 5800 5798 5797 5796 5794 5793 5791 5790 5789 5787 5785 5784 5783 5782 5782 5781 5781 5781 5781 5781 5781 5781 5781 5782 5783 5783 5783 5784 5785 5786 5786 5787 5788 5788 5789 5789 5790 5790 5791 5792 5792 5793 5793 5793 5794 5794 5795 5795 5794 5794 5794 5794 5794 5794 5794 5794 5794 5795 5795 5796 5796 5796 5796 5797 5797 5798 5798 5799 5799 5800 5801 5801
5813 5813 5811 5810 5809 5808 5807 5805 5804 5803 5802 5800 5799 5797 5796 5794 5792 5791 5790 5788 5787 5786 5784 5782 5781 5780 5778 5777 5777 5776 5777 5778 5778 5778 5778 5778 5779 5779 5779 5780 5781 5782 5782 5782 5783 5784 5785 5785 5786 5786 5787 5788 5789 5790 5790 5791 5791 5791 5792 5792 5793 5793 5792 5792 5792 5792 5792 5792 5792 5792 5793 5794 5794 5794 5794 5795 5795 5796 5796 5797 5798 5798 5799 5799 5800
5811 5810 5809 5808 5806 5805 5804 5802 5801 5800 5799 5798 5796 5794 5793 5791 5789 5788 5787 5785 5784 5782 5781 5779 5777 5776 5775 5774 5773 5773 5773 5774 5774 5774 5774 5775 5775 5775 5776 5776 5777 5778 5779 5779 5780 5780 5781 5782 5782 5783 5784 5785 5786 5787 5787 5788 5788 5789 5789 5789 5790 5790 5790 5790 5790 5790 5790 5790 5790 5791 5791 5792 5793 5793 5793 5793 5793 5794 5795 5795 5796 5797 5797 5798 5799
5809 5808 5807 5805 5804 5803 5801 5800 5799 5797 5796 5795 5793 5791 5790 5788 5787 5785 5784 5782 5781 5779 5778 5775 5773 5772 5771 5770 5770 5769 5770 5770 5770 5770 5770 5771 5771 5771 5772 5772 5772 5774 5775 5775 5776 5776 5777 5778 5779 5780 5781 5782 5783 5783 5784 5785 5786 5786 5786 5787 5787 5788 5788 5788 5788 5788 5788 5788 5788 5789 5789 5790 5791 5791 5791 5791 5792 5792 5793 5793 5794 5795 5796 5796 5797
5806 5805 5804 5803 5801 5800 5799 5797 5796 5795 5793 5792 5790 5788 5787 5785 5783 5782 5781 5779 5778 5776 5774 5772 5770 5768 5767 5766 5766 5766 5766 5766 5766 5766 5766 5767 5767 5768 5768 5767 5768 5770 5771 5771 5772 5772 5774 5776 5777 5778 5778 5779 5779 5780 5781 5782 5783 5783 5783 5784 5785 5785 5786 5786 5786 5786 5786 5786 5787 5787 5787 5788 5789 5789 5790 5790 5790 5790 5791 5791 5792 5792 5793 5794 5795
5803 5802 5801 5800 5798 5797 5796 5795 5793 5792 5791 5789 5787 5785 5783 5782 5780 5779 5778 5777 5775 5773 5771 5769 5767 5766 5764 5763 5763 5762 5762 5763 5762 5762 5762 5762 5762 5763 5763 5763 5764 5765 5767 5767 5767 5768 5771 5773 5774 5774 5775 5776 5776 5777 5778 5779 5779 5780 5780 5781 5781 5782 5783 5783 5783 5784 5784 5784 5784 5785 5785 5786 5786 5787 5787 5788 5788 5788 5788 5789 5790 5790 5791 5792 5793
5801 5799 5798 5797 5796 5794 5793 5792 5791 5789 5788 5786 5784 5782 5780 5779 5778 5777 5776 5774 5773 5770 5768 5766 5764 5762 5761 5761 5760 5759 5758 5758 5758 5758 5758 5757 5757 5758 5759 5759 5760 5761 5763 5763 5763 5764 5767 5770 5770 5770 5771 5772 5773 5774 5774 5775 5776 5777 5777 5778 5778 5779 5780 5780 5781 5781 5781 5781 5782 5782 5783 5784 5784 5784 5785 5785 5786 5786 5786 5787 5787 5788 5789 5789 5790
5798 5797 5795 5794 5793 5792 5791 5789 5788 5787 5785 5783 5782 5780 5778 5776 5775 5774 5773 5771 5769 5767 5765 5763 5761 5759 5758 5757 5757 5756 5754 5754 5753 5754 5753 5753 5752 5753 5754 5755 5756 5757 5758 5759 5760 5760 5762 5765 5767 5767 5768 5769 5769 5770 5771 5771 5772 5773 5774 5775 5775 5776 5777 5777 5778 5778 5779 5779 5779 5780 5781 5781 5782 5782 5783 5783 5784 5784 5784 5784 5785 5786 5786 5787 5788
5795 5794 5793 5792 5791 5789 5788 5786 5785 5784 5783 5781 5779 5778 5776 5774 5773 5771 5770 5768 5766 5764 5762 5760 5758 5756 5754 5754 5753 5752 5751 5750 5749 5749 5749 5749 5749 5749 5749 5750 5751 5753 5753 5755 5756 5756 5758 5761 5762 5762 5764 5765 5765 5766 5767 5768 5768 5770 5771 5771 5772 5773 5774 5774 5775 5775 5776 5777 5777 5777 5778 5779 5779 5780 5780 5781 5781 5782 5782 5782 5783 5783 5784 5785 5785
5792 5791 5790 5789 5788 5786 5785 5784 5783 5781 5780 5779 5777 5775 5773 5771 5770 5768 5767 5765 5763 5761 5759 5757 5755 5753 5751 5750 5749 5748 5747 5746 5746 5745 5745 5745 5745 5745 5745 5746 5747 5748 5749 5750 5751 5753 5755 5757 5757 5757 5760 5761 5761 5763 5763 5764 5764 5766 5767 5768 5769 5770 5770 5771 5772 5772 5773 5773 5774 5774 5775 5776 5777 5777 5778 5778 5779 5779 5780 5780 5780 5781 5781 5782 5783
5789 5788 5787 5786 5785 5784 5783 5781 5780 5779 5777 5776 5774 5772 5770 5769 5767 5765 5764 5762 5760 5758 5756 5754 5752 5750 5748 5747 5746 5745 5744 5743 5742 5741 5741 5741 5741 5740 5741 5741 5742 5743 5745 5746 5747 5749 5751 5751 5751 5752 5755 5756 5757 5758 5758 5759 5761 5762 5764 5765 5766 5766 5767 5768 5768 5768 5769 5770 5771 5771 5772 5773 5773 5774 5775 5775 5776 5777 5777 5778 5778 5778 5779 5779 5780
5787 5785 5784 5783 5782 5781 5780 5778 5777 5776 5774 5773 5771 5769 5768 5766 5764 5763 5761 5759 5757 5755 5753 5751 5748 5746 5745 5743 5742 5741 5740 5739 5739 5738 5738 5737 5737 5736 5737 5737 5738 5739 5740 5741 5743 5744 5745 5745 5745 5746 5748 5750 5751 5752 5754 5755 5757 5758 5760 5762 5762 5763 5763 5764 5765 5765 5766 5767 5768 5768 5769 5769 5770 5771 5772 5772 5773 5774 5775 5775 5776 5776 5776 5777 5777
5784 5782 5781 5780 5779 5778 5777 5775 5774 5772 5771 5769 5768 5766 5765 5763 5761 5760 5758 5756 5754 5752 5750 5748 5746 5744 5742 5740 5738 5737 5736 5736 5735 5734 5734 5733 5733 5733 5733 5733 5734 5735 5736 5737 5738 5739 5740 5740 5740 5741 5743 5744 5746 5747 5749 5752 5753 5755 5757 5758 5759 5759 5760 5760 5761 5762 5763 5763 5764 5765 5765 5766 5766 5767 5768 5769 5770 5771 5772 5772 5773 5773 5774 5774 5774
5780 5779 5778 5777 5776 5774 5773 5772 5771 5769 5768 5766 5765 5763 5762 5760 5758 5756 5755 5753 5751 5749 5747 5745 5743 5741 5739 5737 5735 5734 5733 5732 5732 5731 5730 5729 5729 5729 5729 5729 5729 5730 5731 5732 5733 5734 5735 5735 5735 5736 5738 5739 5741 5743 5745 5748 5749 5751 5753 5755 5755 5756 5756 5757 5758 5759 5759 5760 5761 5761 5762 5762 5763 5764 5765 5766 5767 5768 5768 5769 5770 5771 5771 5772 5772
5777 5776 5774 5773 5772 5771 5769 5768 5767 5766 5764 5763 5761 5759 5758 5756 5755 5753 5751 5749 5748 5746 5744 5742 5740 5739 5737 5735 5733 5731 5729 5728 5727 5726 5726 5725 5724 5724 5725 5725 5725 5726 5726 5727 5728 5729 5730 5730 5731 5732 5733 5734 5737 5740 5741 5743 5745 5747 5750 5751 5751 5751 5753 5754 5755 5755 5756 5756 5757 5758 5758 5759 5760 5760 5761 5763 5764 5764 5765 5766 5767 5768 5768 5769 5769
5773 5772 5771 5769 5768 5767 5766 5764 5763 5762 5761 5759 5757 5756 5754 5752 5751 5749 5748 5746 5744 5743 5741 5739 5737 5736 5734 5733 5730 5728 5726 5725 5724 5722 5721 5721 5720 5720 5720 5720 5721 5721 5722 5723 5723 5724 5725 5725 5726 5728 5728 5729 5733 5735 5735 5737 5740 5743 5745 5746 5747 5748 5749 5750 5751 5751 5752 5752 5753 5754 5755 5755 5756 5757 5758 5759 5760 5761 5762 5763 5764 5764 5765 5765 5766
5769 5768 5767 5765 5764 5763 5762 5760 5759 5758 5757 5755 5754 5752 5750 5749 5747 5745 5744 5742 5741 5739 5738 5736 5734 5733 5731 5730 5728 5726 5724 5722 5721 5719 5718 5717 5717 5716 5716 5716 5717 5717 5717 5718 5719 5719 5720 5720 5721 5723 5724 5725 5727 5729 5730 5733 5736 5737 5739 5741 5742 5743 5745 5746 5747 5747 5748 5748 5749 5750 5751 5752 5752 5753 5754 5755 5756 5757 5758 5759 5760 5761 5761 5762 5762
5766 5764 5763 5761 5760 5759 5757 5756 5755 5754 5752 5751 5749 5748 5746 5745 5743 5742 5740 5739 5737 5735 5734 5732 5731 5729 5728 5726 5725 5723 5721 5720 5718 5716 5715 5713 5713 5712 5712 5712 5712 5712 5713 5713 5714 5714 5714 5715 5717 5718 5719 5720 5722 5724 5726 5728 5730 5731 5733 5735 5737 5738 5740 5741 5742 5743 5743 5744 5745 5746 5747 5748 5748 5749 5750 5751 5752 5753 5754 5755 5756 5757 5758 5758 5759
5761 5760 5759 5757 5756 5755 5753 5752 5751 5750 5748 5746 5745 5743 5742 5741 5739 5738 5736 5735 5733 5732 5730 5728 5727 5725 5724 5723 5721 5719 5718 5716 5715 5713 5711 5710 5709 5709 5708 5708 5708 5708 5708 5708 5709 5709 5710 5711 5712 5713 5714 5716 5717 5719 5721 5723 5724 5726 5729 5731 5732 5733 5734 5736 5738 5739 5739 5740 5741 5742 5743 5744 5744 5745 5746 5747 5748 5749 5750 5751 5752 5753 5754 5754 5755
5757 5756 5754 5753 5752 5750 5749 5748 5746 5745 5744 5742 5741 5739 5737 5736 5735 5734 5732 5731 5729 5727 5726 5724 5723 5722 5720 5719 5717 5715 5714 5713 5712 5710 5708 5707 5706 5705 5704 5704 5704 5704 5704 5705 5705 5705 5706 5707 5708 5709 5710 5711 5713 5715 5716 5718 5719 5721 5724 5726 5728 5728 5728 5730 5733 5734 5734 5735 5736 5737 5738 5739 5740 5741 5742 5743 5744 5745 5746 5747 5748 5749 5749 5750 5751
5753 5751 5750 5748 5747 5745 5744 5743 5741 5740 5739 5738 5736 5734 5733 5731 5730 5728 5727 5726 5725 5723 5721 5720 5718 5717 5716 5714 5713 5711 5710 5709 5708 5706 5705 5704 5702 5702 5701 5700 5700 5700 5700 5700 5701 5701 5702 5702 5703 5704 5706 5707 5708 5709 5711 5713 5714 5717 5719 5721 5724 5725 5724 5726 5729 5729 5728 5729 5731 5732 5733 5734 5735 5736 5737 5738 5739 5741 5742 5743 5744 5744 5745 5746 5746
5748 5747 5745 5744 5742 5741 5739 5738 5736 5735 5733 5732 5731 5729 5728 5726 5725 5723 5722 5721 5719 5718 5716 5715 5714 5712 5711 5710 5708 5707 5706 5705 5704 5703 5701 5700 5699 5698 5697 5696 5696 5696 5696 5696 5696 5697 5698 5698 5699 5700 5701 5702 5703 5704 5706 5708 5710 5711 5713 5715 5718 5719 5719 5721 5723 5723 5723 5724 5726 5728 5728 5729 5730 5731 5733 5734 5735 5736 5737 5739 5740 5740 5740 5741 5741
5744 5743 5741 5739 5737 5736 5734 5733 5731 5730 5728 5727 5726 5724 5722 5720 5719 5717 5716 5715 5713 5712 5711 5710 5708 5707 5706 5705 5704 5702 5701 5700 5699 5698 5697 5696 5695 5694 5694 5692 5692 5692 5692 5692 5692 5692 5693 5693 5695 5696 5697 5698 5699 5700 5702 5704 5705 5706 5707 5709 5711 5713 5715 5717 5718 5719 5719 5719 5721 5723 5724 5725 5726 5727 5728 5729 5730 5732 5733 5734 5735 5736 5736 5736 5737
5740 5738 5736 5734 5733 5731 5729 5727 5726 5724 5723 5721 5720 5719 5717 5715 5714 5712 5710 5708 5707 5706 5705 5704 5702 5701 5700 5699 5698 5697 5696 5695 5694 5693 5693 5692 5691 5690 5689 5688 5688 5687 5687 5687 5687 5687 5687 5687 5689 5690 5691 5692 5694 5695 5697 5698 5700 5701 5702 5703 5705 5707 5710 5712 5713 5713 5714 5716 5717 5718 5719 5721 5722 5723 5724 5725 5726 5727 5728 5729 5730 5731 5731 5732 5732
5735 5733 5731 5730 5728 5726 5724 5722 5721 5719 5717 5716 5714 5713 5711 5710 5708 5706 5704 5703 5701 5700 5699 5698 5696 5695 5694 5693 5692 5691 5690 5690 5689 5688 5688 5687 5686 5686 5685 5684 5683 5683 5682 5682 5682 5682 5682 5682 5683 5684 5686 5687 5688 5690 5691 5693 5694 5694 5695 5697 5699 5700 5703 5705 5707 5708 5710 5712 5713 5713 5714 5716 5717 5718 5719 5720 5721 5721 5722 5724 5725 5725 5726 5727 5727
5730 5729 5727 5725 5723 5721 5719 5717 5716 5714 5712 5710 5708 5706 5705 5703 5701 5700 5698 5697 5695 5693 5692 5691 5690 5689 5687 5686 5685 5684 5684 5684 5684 5683 5682 5682 5681 5680 5680 5679 5679 5678 5678 5677 5677 5678 5678 5678 5678 5679 5680 5681 5683 5684 5685 5686 5688 5689 5689 5691 5693 5695 5696 5699 5701 5703 5704 5706 5707 5708 5710 5711 5711 5712 5713 5714 5715 5716 5717 5718 5719 5719 5720 5721 5722
5726 5724 5722 5720 5718 5716 5715 5713 5711 5709 5707 5705 5703 5701 5699 5697 5695 5693 5692 5690 5688 5687 5685 5684 5683 5682 5681 5679 5678 5677 5677 5677 5677 5677 5677 5676 5675 5675 5675 5674 5674 5673 5673 5673 5672 5673 5673 5673 5673 5674 5675 5676 5677 5679 5680 5681 5682 5683 5684 5686 5688 5689 5691 5693 5695 5697 5699 5700 5700 5702 5705 5706 5706 5707 5708 5708 5710 5711 5712 5712 5713 5714 5715 5715 5716
5722 5720 5718 5716 5714 5712 5710 5708 5706 5704 5702 5700 5698 5695 5693 5691 5689 5687 5685 5683 5682 5680 5678 5677 5675 5674 5673 5672 5671 5670 5669 5669 5669 5670 5671 5670 5670 5669 5669 5668 5668 5668 5668 5668 5668 5667 5668 5668 5669 5670 5671 5671 5672 5674 5675 5675 5676 5678 5679 5681 5682 5684 5686 5688 5689 5691 5693 5694 5694 5696 5699 5700 5700 5701 5702 5703 5704 5705 5706 5707 5707 5708 5709 5709 5710
5717 5715 5714 5712 5709 5707 5705 5703 5701 5699 5697 5694 5692 5689 5687 5684 5682 5680 5677 5675 5674 5672 5671 5669 5668 5666 5666 5665 5663 5662 5661 5660 5660 5662 5663 5664 5664 5663 5662 5662 5663 5663 5663 5663 5663 5662 5662 5663 5664 5665 5666 5666 5667 5668 5669 5669 5671 5672 5674 5675 5677 5679 5681 5682 5684 5686 5687 5688 5688 5690 5693 5694 5694 5695 5696 5697 5698 5699 5700 5701 5701 5702 5703 5704 5704
5713 5711 5709 5707 5705 5703 5701 5698 5696 5694 5691 5688 5685 5682 5680 5677 5674 5672 5669 5667 5665 5663 5662 5660 5659 5658 5657 5656 5655 5654 5653 5652 5651 5652 5654 5656 5657 5656 5656 5656 5656 5657 5657 5658 5658 5657 5657 5658 5659 5660 5660 5661 5661 5662 5663 5664 5665 5667 5668 5670 5671 5673 5675 5676 5677 5680 5681 5682 5683 5684 5686 5688 5690 5690 5690 5691 5691 5692 5693 5695 5695 5696 5697 5698 5699
5709 5707 5705 5703 5700 5698 5696 5693 5691 5688 5685 5682 5679 5676 5673 5670 5667 5664 5662 5659 5657 5655 5653 5651 5650 5648 5647 5646 5645 5645 5645 5644 5643 5644 5645 5647 5648 5649 5649 5650 5650 5650 5651 5652 5652 5652 5652 5653 5654 5654 5654 5655 5655 5656 5657 5658 5660 5662 5662 5664 5665 5667 5668 5670 5671 5673 5675 5676 5677 5678 5680 5682 5684 5683 5684 5684 5685 5686 5688 5689 5689 5690 5691 5692 5693
5705 5702 5700 5698 5696 5693 5691 5688 5685 5682 5679 5676 5673 5670 5667 5664 5661 5658 5655 5652 5649 5646 5644 5642 5640 5638 5637 5636 5635 5634 5634 5634 5634 5635 5636 5637 5639 5641 5642 5643 5644 5644 5645 5645 5645 5646 5647 5647 5648 5648 5648 5649 5650 5651 5651 5652 5654 5655 5656 5658 5660 5660 5662 5663 5665 5667 5669 5670 5672 5672 5673 5675 5676 5676 5677 5679 5679 5680 5682 5683 5684 5685 5685 5686 5687
5700 5698 5696 5694 5691 5689 5686 5683 5681 5678 5675 5672 5668 5665 5662 5659 5655 5652 5648 5645 5642 5638 5635 5632 5630 5628 5626 5625 5624 5624 5623 5623 5624 5626 5627 5628 5629 5632 5634 5636 5637 5637 5638 5638 5638 5639 5641 5641 5641 5642 5642 5643 5644 5645 5646 5646 5647 5649 5650 5652 5654 5654 5655 5657 5659 5660 5662 5664 5665 5666 5666 5668 5669 5669 5671 5672 5672 5673 5675 5677 5678 5679 5679 5680 5680
5696 5694 5692 5689 5687 5684 5682 5679 5676 5673 5670 5667 5664 5660 5657 5654 5650 5646 5642 5638 5634 5630 5626 5623 5619 5617 5615 5613 5612 5612 5612 5613 5613 5615 5617 5618 5619 5622 5625 5628 5629 5630 5630 5631 5631 5632 5634 5634 5634 5635 5636 5637 5638 5639 5640 5641 5642 5643 5644 5646 5647 5648 5650 5651 5652 5654 5655 5658 5659 5659 5660 5662 5663 5663 5665 5666 5666 5668 5669 5671 5671 5672 5673 5673 5674